| from | to | time | | message |
| N7QME-2 | N7QME | 05/07 06:21:07z | Send another | bms B2 13.34 32 0.0 61.5 62.4 0 |
| N7QME-2 | N7QME | 05/07 06:00:18z | Send another | bms B1 13.29 21 0.0 61.9 63.3 95 |
| N7QME-2 | N7QME | 05/07 05:40:58z | Send another | system phv 13.30 bv 13.31 bc 0.00 bp 0.0 tp 877 rt -113 SOC 80.7 |
| N7QME-2 | N7QME | 05/07 04:58:52z | Send another | hum g 12 v 63 o 67 e .71 f 41. b 76 w 66 h 77 |
| N7QME-2 | N7QME | 05/07 04:39:43z | Send another | temps g 62.8 v .64.4 o .60.8 e 59.9 f 37.5 b 58.3 w 63.4 h 58.8 75.0. |
| N7QME-2 | N7QME | 05/07 04:19:37z | Send another | bms B2 13.34 31 0.0 61.7 62.8 0 |
| N7QME-2 | N7QME | 05/07 04:00:22z | Send another | bms B1 13.28 20 0.0 61.3 63.5 95 |
| N7QME-2 | N7QME | 05/07 03:42:24z | Send another | system phv 13.31 bv 13.30 bc 3.60 bp 47.9 tp 865 rt -125 SOC 79.4 |
| N7QME-2 | N7QME | 05/07 03:02:07z | Send another | hum g 12 v 65. o 64 e .73 f 37 b 77 w 66 h 77. |
| N7QME-2 | N7QME | 05/07 02:41:37z | Send another | temps g 63.3 v 66.2 o .65.6 e 60.4 f 38.6. b 58.7 w 64.8 h 58.7 75.0. |
| N7QME-2 | N7QME | 05/07 02:20:32z | Send another | bms B2 13.37 26 0.0 61.5 62.4 0 |
| N7QME-2 | N7QME | 05/07 02:02:42z | Send another | bms B1 13.32 21 0.0 61.7 63.3 96 |
| N7QME-2 | N7QME | 05/07 01:44:37z | Send another | system phv 13.36 bv 13.34 bc 0.00 bp 0.0 tp 989 rt -383 SOC 82.7 |
| N7QME-2 | N7QME | 05/07 01:02:52z | Send another | hum g 10 v .65 o 63. e 74 f 45. b 77 w 66 h 76 |
| N7QME-2 | N7QME | 05/07 00:41:12z | Send another | temps g 63.3 v 67.1 o .68.8 e 60.3 f 37.7 b 58.8 w 65.5 h 58.4 75.0. |
| N7QME-2 | N7QME | 05/07 00:20:42z | Send another | bms B2 13.43 25 2.8 61.5 62.4 0 |
| N7QME-2 | N7QME | 05/07 00:01:01z | Send another | bms B1 13.34 18 0.0 61.5 63.1 96 |
| N7QME-2 | N7QME | 05/06 23:40:42z | Send another | system phv 13.37 bv 13.38 bc 0.00 bp 0.0 tp 958 rt -414 SOC 85.1 |
| N7QME-2 | N7QME | 05/06 23:01:52z | Send another | hum g 12. v 68 o .64 e 76. f .40 b 76 w 66 h 76 |
| N7QME-2 | N7QME | 05/06 22:43:15z | Send another | temps g 62.6. v 66.1. o 73.7. e 59.8 f 37.6. b 58.2 w 65.3. h 57.9 75.0. |
| N7QME-2 | N7QME | 05/06 22:23:32z | Send another | bms B2 13.41 28 2.0 61.2 62.2 0 |
| N7QME-2 | N7QME | 05/06 22:05:55z | Send another | bms B1 13.37 16 0.0 61.3 63.1 96 |
| N7QME-2 | N7QME | 05/06 21:48:12z | Send another | system phv 13.40 bv 13.38 bc 0.00 bp 0.0 tp 898 rt -194 SOC 85.2 |
| N7QME-2 | N7QME | 05/06 21:10:12z | Send another | hum g 10. v 69 o .72 e 74 f 43. b 75 w 67 h 76 |
| N7QME-2 | N7QME | 05/06 20:51:22z | Send another | temps g 62.0 v 63.3. o 66.6. e 59.3 f .37.6 b 57.8 w 62.9 h 57.5 75.0. |
| N7QME-2 | N7QME | 05/06 20:31:12z | Send another | bms B2 13.41 27 0.0 61.2 62.1 0 |
| N7QME-2 | N7QME | 05/06 20:11:47z | Send another | bms B1 13.38 18 0.0 61.3 63.0 97 |
| N7QME-2 | N7QME | 05/06 19:51:32z | Send another | system phv 13.44 bv 13.38 bc 6.40 bp 85.7 tp 745 rt -345 SOC 84.5 |
| N7QME-2 | N7QME | 05/06 19:10:06z | Send another | hum g 12. v 69 o 74 e 73 f .44 b 75 w 68 h 76. |
| N7QME-2 | N7QME | 05/06 18:49:57z | Send another | temps g 61.7 v 61.1 o 62.1. e 59.0 |
| N7QME-2 | N7QME | 05/06 18:31:57z | Send another | bms B2 13.33 35 1.0 61.2 61.9 0 |
| N7QME-2 | N7QME | 05/06 18:13:07z | Send another | bms B1 13.27 23 0.0 61.3 63.0 95 |
| N7QME-2 | N7QME | 05/06 17:52:20z | Send another | system phv 13.35 bv 13.31 bc 0.00 bp 0.0 tp 668 rt -421 SOC 80.6 |
| N7QME-2 | N7QME | 05/06 17:12:42z | Send another | hum g 10. v 69 o .76 e 74 f 40 b 75 w 68 h 76 |
| N7QME-2 | N7QME | 05/06 16:51:17z | Send another | temps g 61.6 v 60.1 o 59.5. e .58.9 f 37.5 b 57.7 w 61.4 h 57.4 75.0. |
| N7QME-2 | N7QME | 05/06 16:33:52z | Send another | bms B2 13.32 34 0.0 61.2 62.2 0 |
| N7QME-2 | N7QME | 05/06 16:14:47z | Send another | bms B1 13.28 15 0.0 61.5 63.1 95 |
| N7QME-2 | N7QME | 05/06 15:56:17z | Send another | system phv 13.31 bv 13.29 bc 0.00 bp 0.0 tp -39 rt -1119 SOC 79.1 |
| N7QME-2 | N7QME | 05/06 15:16:12z | Send another | hum g 13 v 69 o 78 e 74. f 45. b 75 w 68 h 76 |
| N7QME-2 | N7QME | 05/06 14:55:02z | Send another | temps g 61.8 v 59.9 o 57.5 e 59.1 f 37.1 b .57.7 w 61.3 h 57.5 75.0. |
| N7QME-2 | N7QME | 05/06 14:37:12z | Send another | bms B2 13.34 34 0.0 61.3 62.2 0 |
| N7QME-2 | N7QME | 05/06 14:16:07z | Send another | bms B1 13.29 17 0.0 61.9 63.3 95 |
| N7QME-2 | N7QME | 05/06 13:56:37z | Send another | system phv 13.27 bv 13.31 bc 0.00 bp 0.0 tp 3 rt -1076 SOC 80.5 |
| N7QME-2 | N7QME | 05/06 13:16:32z | Send another | hum g 15. v 69 o 78 e 74 f 42 b 75 w 68. h 76. |
| N7QME-2 | N7QME | 05/06 12:57:24z | Send another | temps g 62.1 v 60.4 o .57.8 e 59.3 f 37.0 b 58.0 w .61.6 h 57.7 75.0. |
| N7QME-2 | N7QME | 05/06 12:39:32z | Send another | bms B2 13.33 36 0.0 61.7 62.4 0 |
| N7QME-2 | N7QME | 05/06 12:19:54z | Send another | bms B1 13.28 19 0.0 61.9 63.3 95 |
| N7QME-2 | N7QME | 05/06 12:01:55z | Send another | system phv 13.31 bv 13.31 bc 0.00 bp 0.0 tp 277 rt -1080 SOC 80.5 |
| N7QME-2 | N7QME | 05/06 11:21:52z | Send another | hum g 13. v 68 o 77. e 73 f 40 b .75 w 67 h 75 |
| N7QME-2 | N7QME | 05/06 11:00:19z | Send another | temps g .62.3 v 61.0 o .58.5 e 59.6 f 38.0. b 58.1 w 61.9 h .57.8 75.0. |
| N7QME-2 | N7QME | 05/06 10:40:57z | Send another | bms B2 13.29 41 0.0 61.7 62.6 0 |
| N7QME-2 | N7QME | 05/06 10:19:18z | Send another | bms B1 13.24 21 0.0 62.1 63.7 95 |
| N7QME-2 | N7QME | 05/06 09:58:43z | Send another | system phv 13.25 bv 13.26 bc 0.00 bp 0.0 tp 254 rt -1 SOC 77.0 |
| N7QME-2 | N7QME | 05/06 09:18:24z | Send another | hum g 15. v 68 o 74 e 73 f .44 b 76 w 67 h 75 |
| N7QME-2 | N7QME | 05/06 08:59:08z | Send another | temps g 62.6 v 61.6 o 59.4 e 59.8 f 37.2 b 58.3 w 62.5 h 58.0 75.0. |
| N7QME-2 | N7QME | 05/06 08:37:28z | Send another | bms B2 13.29 38 0.0 62.1 63.0 0 |
| N7QME-2 | N7QME | 05/06 08:19:52z | Send another | bms B1 13.23 23 0.0 62.2 63.9 95 |
| N7QME-2 | N7QME | 05/06 07:17:57z | Send another | hum g 13. v 68 o 75 e 74 f 39. b 76 w 65 h 75 |
| N7QME-2 | N7QME | 05/06 06:17:35z | Send another | bms B1 13.26 21 0.0 62.2 64.0 95 |
| N7QME-2 | N7QME | 05/06 05:01:22z | Send another | temps g 63.1 v .63.2 o .59.2 e 60.2 f 38.1 b 58.5 w 63.6 h 58.3 75.0. |
| N7QME-2 | N7QME | 05/06 04:43:33z | Send another | bms B2 13.31 33 0.0 62.2 63.1 0 |
| N7QME-2 | N7QME | 05/06 04:22:32z | Send another | bms B1 13.27 20 0.0 62.2 64.0 95 |
| N7QME-2 | N7QME | 05/06 04:05:07z | Send another | system phv 13.25 bv 13.29 bc -0.60 bp -8.0 tp 269 rt -22 SOC 78.8 |
| N7QME-2 | N7QME | 05/06 03:29:05z | Send another | hum g 11 v 67 o 69. e 73 f 43. b 76 w 64 h 75 |
| N7QME-2 | N7QME | 05/06 03:08:55z | Send another | temps g 63.2 v 64.7 o .65.6 e 60.4 f 37.4 b 58.7 w 64.6 h 58.3 75.0. |
| N7QME-2 | N7QME | 05/06 02:48:32z | Send another | bms B2 13.29 30 -3.4 62.2 63.3 0 |
| N7QME-2 | N7QME | 05/06 02:29:05z | Send another | bms B1 13.26 21 -2.5 62.2 64.0 95 |
| N7QME-2 | N7QME | 05/06 02:09:07z | Send another | system phv 13.34 bv 13.34 bc 0.00 bp 0.0 tp 450 rt -556 SOC 82.2 |
| N7QME-2 | N7QME | 05/06 01:29:15z | Send another | hum g 10 v 67 o 69 e 73 f 38 b 76 w 65 h 75 |
| N7QME-2 | N7QME | 05/06 01:10:12z | Send another | temps g 63.0 v 64.9 o 68.0. e 60.2 f 38.1. b 58.5 w 63.9 h 58.2 75.0. |
| N7QME-2 | N7QME | 05/06 00:50:33z | Send another | bms B2 13.41 23 -1.5 62.2 63.1 0 |
| N7QME-2 | N7QME | 05/06 00:31:20z | Send another | bms B1 13.38 18 0.0 62.4 63.9 97 |
| N7QME-2 | N7QME | 05/06 00:13:17z | Send another | system phv 13.42 bv 13.41 bc 1.30 bp 17.4 tp 449 rt -556 SOC 86.3 |
| N7QME-2 | N7QME | 05/05 23:35:22z | Send another | hum g 11. v 67 o .69 e 73. f 45. b 76 w 65 h 75 |
| N7QME-2 | N7QME | 05/05 23:15:39z | Send another | temps g 62.8 v 64.2 o 66.2 e 60.1 f 37.9. b 58.4 w 63.5. h 58.0 75.0. |
| N7QME-2 | N7QME | 05/05 22:57:47z | Send another | bms B2 13.45 25 2.3 62.2 63.3 0 |
| N7QME-2 | N7QME | 05/05 22:37:40z | Send another | bms B1 13.39 23 1.4 62.6 64.2 97 |
| N7QME-2 | N7QME | 05/05 22:18:57z | Send another | system phv 13.42 bv 13.41 bc 0.00 bp 0.0 tp 324 rt -680 SOC 86.5 |
| N7QME-2 | N7QME | 05/05 21:37:57z | Send another | hum g 10. v .68 o .72 e 73 f 43 b 75 w 65 h 75 |
| N7QME-2 | N7QME | 05/05 21:17:57z | Send another | temps g 62.5 v 62.9. o 65.0. e 59.9 f 37.1 b 58.2 w 63.0. h 57.8 75.0. |
| N7QME-2 | N7QME | 05/05 20:57:02z | Send another | bms B2 13.38 30 1.0 62.4 63.3 0 |
| N7QME-2 | N7QME | 05/05 20:35:58z | Send another | bms B1 13.33 21 0.0 62.8 64.2 96 |
| N7QME-2 | N7QME | 05/05 20:14:12z | Send another | system phv 13.40 bv 13.38 bc 1.30 bp 17.4 tp 146 rt -856 SOC 84.3 |
| N7QME-2 | N7QME | 05/05 19:36:02z | Send another | hum g 11. v 69. o .80 e 74 f 39. b 75 w 66 h 75 |
| N7QME-2 | N7QME | 05/05 19:15:52z | Send another | temps g 62.5 v 61.2 o 61.3. e 59.8 f 37.9 b 58.2 w 62.1 h 57.8 75.0. |
| N7QME-2 | N7QME | 05/05 18:55:12z | Send another | bms B2 13.39 29 1.7 62.6 63.5 0 |
| N7QME-2 | N7QME | 05/05 18:34:32z | Send another | bms B1 13.33 21 1.4 63.0 64.4 96 |
| N7QME-2 | N7QME | 05/05 18:12:57z | Send another | system phv 13.36 bv 13.32 bc 1.30 bp 17.3 tp 53 rt -947 SOC 81.0 |
| N7QME-2 | N7QME | 05/05 17:34:57z | Send another | hum g 14. v 68. o 81. e 73 f 44. b 75 w 65 h 75 |
| N7QME-2 | N7QME | 05/05 17:14:37z | Send another | temps g 62.6 v 60.6 o 57.2 e 59.8 f .37.2 b 58.2 w 61.7 h 58.0 75.0. |
| N7QME-2 | N7QME | 05/05 16:56:39z | Send another | bms B2 13.34 33 0.5 63.0 63.7 0 |
| N7QME-2 | N7QME | 05/05 16:36:47z | Send another | bms B1 13.29 20 0.0 63.3 64.8 95 |
| N7QME-2 | N7QME | 05/05 16:15:27z | Send another | system phv 13.31 bv 13.31 bc 0.00 bp 0.0 tp 46 rt -954 SOC 80.4 |
| N7QME-2 | N7QME | 05/05 15:19:27z | Send another | temps g 63.0 v .61.1 o 56.4 e 60.0 f 38.0 b 58.4 w 61.9 h 58.3 75.0. |
| N7QME-2 | N7QME | 05/05 12:42:32z | Send another | bms B1 13.24 18 0.0 64.0 65.5 95 |
| N7QME-2 | N7QME | 05/05 12:23:32z | Send another | system phv 13.23 bv 13.26 bc -0.40 bp -5.3 tp 550 rt -0 SOC 77.2 |
| N7QME-2 | N7QME | 05/05 11:41:17z | Send another | hum g 12 v 63. o 73. e 72 f 41 b 76 w 62 h 75. |
| N7QME-2 | N7QME | 05/05 11:20:05z | Send another | temps g 63.9 v 63.3 o 58.4 e 60.8 f 37.9 b 59.0 w 63.5 h 59.1 75.0. |
| N7QME-2 | N7QME | 05/05 10:21:12z | Send another | system phv 13.31 bv 13.31 bc 0.00 bp 0.0 tp 576 rt 0 SOC 80.6 |
| N7QME-2 | N7QME | 05/05 09:40:57z | Send another | hum g 14 v 62 o 72. e 72 f 36 b 75 w 61 h 74 |